Location: Newark
(42.1667°N, 14.5667°E)
Time: 22:09:19
(UTC+00:00)

Envisat - Pass Details

Date: 29 January 2020
Orbit: 764 x 766 km, 98.1° (Epoch: 19 February)

Event Time Altitude Azimuth Distance (km) Brightness Sun altitude
Rises 18:19:06 0° 217° (SW) 3,220 6.8 -23.7°
Reaches altitude 10° 18:22:46 10° 244° (WSW) 2,301 6.4 -24.4°
Maximum altitude 18:25:02 13° 271° (W) 2,106 6.3 -24.8°
Drops below altitude 10° 18:27:18 10° 298° (WNW) 2,308 6.3 -25.2°
Sets 18:31:01 0° 326° (NW) 3,240 6.7 -25.9°
